Vertical_Velocity
1 0 -0 -1 -2 -4 -3 -5 -11 -6 15 14 -5 3 2 -1 -1 -2 -1 0 1 -3 -6 -5 -5 -4 -2 0 -3 -1 -3 -5 -1 1 1 -2 -1 -1
1 -1 -1 1 -2 -1 -0 -1 -5 -12 -10 -15 3 0 1 5 1 -2 -1 -1 1 -7 -9 -3 1 -4 -3 -3 1 -0 -1 -2 -1 -1 -2 -0 -2 -2
0 1 -2 -1 -0 -1 -2 0 0 -5 -12 13 -4 -2 -3 -5 -3 -3 -1 -3 -3 -9 -6 -6 -8 -4 -2 1 3 1 1 0 1 0 0 -3 -2 -4
-1 -0 -2 -1 -1 -1 1 2 -1 -2 -8 -5 1 -1 -4 -2 -10 -5 -1 5 -7 -6 -0 -2 -5 -3 -1 -3 0 2 3 2 3 1 1 -3 -1 -3
-1 -0 -1 -0 -0 -2 -2 -1 -1 0 -2 -8 -3 -5 -5 -13 -4 -1 -4 -0 -1 -1 4 -5 -3 -4 -2 -2 -3 0 0 3 5 2 -1 -2 -1 -1
-2 -0 -0 -0 0 -1 -1 -0 -1 -1 -3 -4 -1 -4 -6 2 -10 -7 6 -0 2 -9 1 -9 -1 -0 -4 -2 -1 -2 -1 3 2 2 3 -1 -1 -0
-1 -1 -1 -3 -2 -1 -3 -0 -1 -3 -1 -5 0 -0 -5 -2 -3 2 -1 -2 13 -14 -1 12 -4 -0 -7 -2 -6 -8 -2 3 1 3 3 1 -0 -0
1 -2 -2 -1 -2 -4 -1 -3 -5 -9 -6 -13 -5 -8 2 -6 -1 -1 1 2 18 -9 -10 19 -10 7 -5 -1 -7 -4 -0 -1 3 0 -1 1 -0 -2
-1 -1 2 -2 -2 -1 -2 4 5 -0 -14 -15 -10 -7 -3 -1 -2 -1 3 -1 -1 -5 -14 26 -7 5 -4 -3 -11 -5 -3 1 3 2 -0 -3 -1 1
1 -2 -2 -0 -0 -1 0 1 3 1 -2 -7 -7 -4 -2 -0 -6 -3 -0 5 10 4 -26 3 1 7 7 -8 -6 -5 -1 -0 0 2 -0 -1 1 1
-3 1 -2 -1 0 -1 -6 -3 2 -2 -3 -4 -4 -5 -4 -3 -7 -4 -2 -2 8 7 -19 -2 0 5 8 -3 -2 -7 -2 -3 0 0 1 -0 1 1
-4 -4 -4 -5 -1 -2 -5 -6 -1 -2 -1 3 -5 -6 -6 -2 -4 -8 -5 -2 -4 13 -16 -1 4 -14 18 -3 -5 -9 -3 -7 1 -1 2 2 1 -2
-1 2 2 0 -2 -4 -4 -5 -4 0 3 -0 2 -0 -1 -3 -3 -4 -5 -7 -2 0 -7 -8 5 3 -5 9 7 -8 -5 -3 -2 -4 -2 -2 -2 -5
-2 -1 1 0 -2 -5 -0 -1 -1 1 -1 -0 -1 -1 1 0 -2 -1 -1 -1 -5 -12 5 -3 2 -2 -1 4 10 -8 -5 -1 0 -2 -1 -1 -4 -2
0 -1 -3 -5 -9 -3 -3 -2 -1 0 0 0 -0 -1 -2 -0 -2 -3 -0 -4 2 -9 -5 -3 -0 2 -3 -2 7 -3 3 -3 -4 -1 2 -1 1 -1
1 1 -2 -3 -3 0 1 -1 -0 -0 -0 2 2 1 0 -0 -0 -6 -3 -2 5 11 -12 -5 -0 -2 3 -4 -1 2 -3 5 8 -7 4 0 -2 -4
-2 -1 -1 -2 -1 -2 -1 0 -1 1 2 -2 -2 -1 2 1 3 -2 -5 -1 -4 -0 10 -1 -5 -4 -2 -2 5 -1 2 2 -0 5 3 4 -8 -4
-1 -1 -1 -3 -0 0 3 2 -3 -1 -2 -1 -1 -2 0 2 2 3 -3 -4 -0 2 -2 -0 2 5 -4 -11 1 -2 -1 4 -0 -2 -4 -1 4 -5
-2 -2 -3 0 -1 0 2 1 4 -1 -1 -2 -0 -1 -2 2 -0 3 0 -3 2 -3 -8 -2 1 -1 4 1 -7 -1 7 -2 1 -3 -4 -4 3 4
-8 -3 -3 -1 -1 2 -0 1 0 -1 -0 -0 -1 -1 -1 -2 0 1 1 -2 -2 -2 -3 -6 -2 -0 1 1 -2 -6 -8 1 -1 1 1 -2 -3 2
-1 -1 -0 -1 1 1 0 -2 -3 -1 -2 -2 -3 -0 -0 -2 0 -3 -0 -5 -3 0 -1 -2 -1 -0 -0 -0 -0 -1 -5 -5 -5 -0 2 4 3 -1
0 -1 -1 -0 -0 0 -2 -2 -0 -2 -0 1 1 1 2 -0 -1 -1 -2 -1 -3 -1 -2 -2 -1 0 -0 -1 -0 0 0 -0 -9 -3 1 0 8 10
1 1 -1 -0 0 1 -2 -1 -2 -2 0 -1 1 1 -2 1 -1 -3 -1 -1 -1 -0 -1 -0 0 0 1 -1 -1 1 -1 -1 4 0 -3 1 -2 -2
Height
5686 5682 5678 5673 5667 5662 5655 5648 5641 5636 5635 5627 5618 5609 5601 5593 5585 5576 5567 5557 5547 5534 5522 5513 5502 5491 5479 5468 5458 5450 5444 5440 5437 5436 5435 5435 5434 5435
5676 5671 5666 5661 5655 5648 5641 5633 5625 5618 5612 5605 5596 5588 5579 5571 5561 5550 5541 5530 5517 5501 5489 5476 5462 5453 5445 5438 5432 5429 5426 5422 5421 5420 5420 5419 5419 5420
5664 5659 5653 5648 5642 5634 5626 5619 5611 5602 5595 5590 5579 5569 5559 5549 5540 5527 5514 5500 5485 5469 5456 5443 5435 5430 5425 5421 5418 5415 5413 5411 5409 5407 5407 5405 5405 5405
5652 5647 5641 5634 5627 5619 5612 5604 5595 5585 5576 5569 5559 5550 5538 5526 5515 5503 5487 5468 5451 5439 5431 5423 5420 5415 5412 5408 5406 5403 5401 5399 5398 5396 5394 5393 5393 5393
5641 5635 5628 5621 5613 5605 5597 5588 5579 5569 5558 5549 5541 5526 5515 5499 5489 5473 5457 5441 5427 5422 5418 5411 5409 5402 5399 5396 5393 5391 5389 5387 5386 5385 5383 5381 5381 5382
5628 5621 5614 5606 5599 5591 5583 5573 5563 5553 5543 5532 5520 5507 5488 5473 5457 5445 5435 5424 5415 5409 5404 5397 5395 5390 5386 5383 5380 5378 5376 5375 5373 5372 5371 5370 5370 5370
5615 5608 5600 5592 5584 5575 5565 5556 5546 5535 5524 5513 5500 5484 5464 5446 5431 5423 5418 5412 5401 5395 5395 5385 5382 5376 5371 5367 5365 5363 5362 5361 5360 5359 5357 5357 5356 5357
5602 5594 5586 5577 5568 5559 5550 5539 5526 5512 5501 5488 5475 5460 5442 5426 5417 5410 5403 5399 5396 5379 5381 5376 5368 5363 5356 5353 5349 5345 5346 5345 5343 5342 5342 5341 5342 5342
5588 5580 5571 5563 5554 5546 5536 5524 5510 5492 5475 5462 5450 5432 5422 5413 5408 5401 5393 5387 5379 5370 5366 5367 5355 5349 5342 5338 5333 5331 5329 5329 5328 5327 5325 5326 5326 5327
5575 5566 5557 5550 5541 5531 5521 5507 5492 5474 5456 5440 5426 5417 5410 5403 5396 5390 5383 5376 5367 5355 5345 5349 5341 5336 5330 5324 5320 5318 5316 5315 5313 5312 5312 5312 5312 5314
5561 5552 5544 5535 5524 5514 5501 5487 5471 5452 5434 5418 5411 5405 5399 5391 5383 5377 5368 5360 5354 5344 5328 5329 5324 5321 5319 5312 5307 5305 5304 5302 5300 5298 5298 5299 5300 5301
5550 5539 5528 5518 5506 5493 5480 5465 5451 5432 5418 5409 5401 5394 5387 5379 5369 5360 5352 5346 5339 5335 5318 5318 5311 5305 5310 5303 5296 5293 5291 5288 5287 5286 5286 5287 5289 5290
5536 5526 5514 5501 5489 5474 5458 5443 5428 5416 5409 5402 5395 5387 5377 5368 5358 5349 5339 5332 5326 5320 5310 5305 5301 5297 5295 5297 5290 5283 5280 5277 5276 5276 5276 5277 5278 5278
5523 5511 5498 5485 5471 5456 5440 5424 5413 5407 5401 5394 5386 5377 5369 5359 5349 5340 5330 5322 5312 5307 5302 5296 5292 5287 5287 5286 5283 5276 5270 5269 5269 5270 5269 5269 5269 5268
5508 5494 5481 5467 5453 5435 5419 5410 5405 5399 5393 5385 5377 5368 5358 5350 5341 5334 5322 5313 5305 5297 5291 5287 5283 5280 5277 5276 5274 5267 5265 5263 5262 5262 5262 5261 5260 5259
5492 5479 5464 5449 5431 5418 5407 5402 5398 5391 5384 5377 5368 5359 5349 5339 5329 5321 5314 5305 5299 5292 5282 5278 5275 5272 5270 5266 5263 5260 5259 5259 5258 5255 5255 5254 5251 5248
5478 5464 5447 5429 5413 5404 5399 5396 5390 5383 5375 5366 5357 5348 5338 5328 5317 5307 5300 5293 5287 5283 5279 5273 5266 5264 5261 5258 5256 5253 5254 5253 5250 5249 5248 5247 5243 5239
5460 5445 5427 5411 5403 5398 5394 5389 5383 5375 5366 5356 5346 5335 5325 5315 5305 5295 5287 5281 5277 5273 5270 5266 5263 5259 5254 5250 5248 5249 5248 5246 5245 5243 5241 5240 5236 5229
5442 5425 5410 5401 5397 5394 5390 5384 5377 5367 5358 5346 5334 5323 5312 5302 5292 5284 5277 5272 5268 5264 5261 5259 5258 5255 5252 5249 5245 5245 5245 5241 5240 5238 5235 5232 5228 5222
5422 5409 5400 5397 5395 5390 5385 5378 5370 5360 5349 5336 5323 5310 5299 5289 5281 5274 5267 5263 5260 5257 5256 5254 5252 5250 5247 5246 5244 5241 5237 5237 5235 5234 5230 5225 5220 5215
5408 5400 5396 5395 5391 5387 5381 5373 5365 5354 5341 5328 5313 5301 5290 5281 5273 5265 5259 5255 5253 5251 5251 5251 5249 5246 5245 5245 5244 5242 5237 5233 5230 5228 5225 5221 5215 5208
5399 5395 5394 5392 5388 5383 5377 5370 5359 5347 5333 5320 5307 5295 5284 5273 5264 5257 5253 5251 5249 5249 5249 5249 5247 5246 5245 5245 5242 5239 5236 5232 5227 5223 5219 5214 5210 5205
5393 5392 5391 5389 5385 5381 5374 5366 5355 5342 5329 5316 5304 5292 5280 5269 5261 5257 5254 5252 5251 5251 5251 5250 5249 5248 5246 5244 5241 5237 5233 5229 5225 5221 5215 5208 5203 5196